Home   Weather   Sunrise   Past weeks

Flag for USA Past Weather in Sunrise, Florida, USA — Yesterday and Last 2 Weeks

Now
72 °F

Light rain. Mostly cloudy.


Feels Like: 73 °F
Forecast: 68 / 74 °F
Wind: 15 mph from Northeast

Location: Fort Lauderdale Executive Airport

Current Time: Dec 10, 2016 at 3:35:20 pm

Latest Report: Dec 10, 2016 at 2:53 pm


Visibility: 10 mi

Pressure: 30.19 "Hg

Humidity: 78%

Dew Point: 65 °F

Location of SunriseLocation

Past Weather in Sunrise — Graph

°F

Sunrise Temperature Yesterday

Maximum temperature yesterday: 74 °F (at 12:53 pm)
Minimum temperature yesterday: 65 °F (at 11:53 pm)
Average temperature yesterday: 70 °F

High & Low Weather Summary for the Past Weeks

 TemperatureHumidityPressure
High87 °F (Dec 6, 1:53 pm)97% (Dec 10, 2:53 am)30.27 "Hg (Dec 10, 2:53 am)
Low63 °F (Nov 27, 6:53 am)40% (Nov 26, 1:53 pm)29.91 "Hg (Dec 6, 2:53 pm)
Average75 °F74%30.05 "Hg
* Reported Nov 25 1:53 pm — Dec 10 1:53 pm, Sunrise, Weather by CustomWeather, © 2016

Note: Actual official high and low records may vary slightly from our data, if they occured in-between our weather recording intervals... More about our weather records

Advertising

Sunrise Weather History for the Previous 24 Hours

Scroll right to see more
 ConditionsComfort  
Time TempWeatherWind HumidityBarometerVisibility
1:53 pm
Sat, Dec 10
72 °FLight rain. Mostly cloudy.13 mph78%30.20 "Hg10 mi
12:53 pm72 °FMostly cloudy.16 mph81%30.21 "Hg10 mi
11:53 am71 °FCloudy.14 mph84%30.25 "Hg7 mi
10:53 am70 °FLight rain. Mostly cloudy.9 mph87%30.27 "Hg7 mi
9:53 am69 °FLight rain. Fog.13 mph90%30.27 "Hg5 mi
9:00 am69 °FLight rain. Mostly cloudy.12 mph90%30.26 "Hg8 mi
7:53 am66 °FLight rain. Mostly cloudy.6 mph96%30.24 "Hg8 mi
6:53 am65 °FRain. Fog.7 mph97%30.24 "Hg4 mi
5:53 am64 °FLight rain. Mostly cloudy.6 mph97%30.22 "Hg10 mi
5:00 am64 °FLight rain. Mostly cloudy.6 mph94%30.21 "Hg9 mi
3:53 am65 °FLight rain. Fog.7 mph94%30.20 "Hg6 mi
2:53 am64 °FLight rain. Low clouds.7 mph97%30.21 "Hg8 mi
1:53 am64 °FLight rain. Fog.6 mph90%30.21 "Hg4 mi
12:53 am64 °FMostly cloudy.8 mph84%30.21 "Hg10 mi
11:53 pm
Fri, Dec 9
65 °FOvercast.9 mph78%30.22 "Hg10 mi
10:53 pm66 °FMostly cloudy.12 mph75%30.22 "Hg10 mi
9:53 pm66 °FPassing clouds.7 mph73%30.23 "Hg10 mi
8:53 pm67 °FPassing clouds.9 mph73%30.22 "Hg10 mi
7:53 pm67 °FPassing clouds.6 mph73%30.21 "Hg10 mi
6:53 pm67 °FClear.9 mph76%30.19 "Hg10 mi
5:53 pm68 °FPassing clouds.12 mph73%30.19 "Hg10 mi
4:53 pm71 °FScattered clouds.8 mph71%30.17 "Hg10 mi
3:53 pm72 °FScattered clouds.10 mph68%30.16 "Hg10 mi
Weather by CustomWeather, © 2016

See weather overviewHow to use our weather pages